sat.trackr.live / text

‹ back to catalog

STARLINK-35585

NORAD 66170 · 2025-240AA

PAYLOAD ACTIVE UNKNOWN

§ Identity

Operator
Country
US
Launch date
2025-10-25
Launch site
AFWTR
Launch vehicle
Mass (kg)
RCS (m²)

Purposes: comms

External: N2YO · Heavens-Above · Gunter

§ Orbital elements

Epoch: 2026-09-20T05:52:20.738208Z

Period
93.85 min
Inclination
53.1597°
Eccentricity
0.0001257
Mean motion
15.34401616 rev/d
Perigee alt
461.8 km
Apogee alt
463.6 km
Semi-major
6,840.8 km
B*
4.8072e-4
RAAN
235.0047°
Arg perigee
86.7770°
Mean anomaly
273.3376°
Rev number
5,183

§ Raw data

STARLINK-355851 66170U 25240AA  26263.24468447  .00015901  00000+0  48072-3 0  99902 66170  53.1597 235.0047 0001257  86.7770 273.3376 15.34401616 51832

JSON: /api/v1/satellites/66170 · /tle

For live sub-satellite position, see the globe view (requires WebGL).

§ Visibility from observer

Set your observer location to see the next 7 days of passes ≥ 10°. The values pass through the URL so the page stays shareable.

No JS? Fill the form by hand. The geolocation button needs JavaScript.